When you browse on this site, cookies collect data to enhance your experience and personalize the content and advertising you see.
Visit our Privacy Policy to learn more. By continuing to use the site, you agree to this use of cookies and data.
  • In United Kingdom
  • List of Countries
  • For 7 days
  • Water Temperature
  • Weather Map
  • Weather Widgets
  • user-avatar
    Login

    Hourly Weather Pleven

    Today, 27 February, Thursday

    Time Temperature Precipitation Wind Pressure Humidity
    00:00 +12°C° 0 mm 3 mps 733 mmHg 62%
    01:00 +12°C° 0 mm 2 mps 733 mmHg 64%
    02:00 +11°C° 0 mm 3 mps 732 mmHg 64%
    03:00 +10°C° 0 mm 3 mps 732 mmHg 63%
    04:00 +10°C° 0 mm 3 mps 732 mmHg 63%
    05:00 +10°C° 0 mm 3 mps 732 mmHg 63%
    06:00 +9°C° 0 mm 2 mps 732 mmHg 67%
    07:00 +10°C° 0 mm 1 mps 733 mmHg 71%
    08:00 +10°C° 0 mm 1 mps 733 mmHg 76%
    09:00 +9°C° 0.6 mm 2 mps 734 mmHg 76%
    10:00 +8°C° 0.6 mm 3 mps 734 mmHg 76%
    11:00 +7°C° 0.6 mm 4 mps 734 mmHg 77%
    12:00 +7°C° 0.3 mm 5 mps 734 mmHg 74%
    13:00 +6°C° 0.3 mm 5 mps 734 mmHg 71%
    14:00 +5°C° 0.3 mm 6 mps 734 mmHg 68%
    15:00 +5°C° 0.1 mm 7 mps 735 mmHg 64%
    16:00 +5°C° 0.1 mm 7 mps 735 mmHg 60%
    17:00 +5°C° 0.1 mm 8 mps 736 mmHg 56%
    18:00 +4°C° 0 mm 8 mps 737 mmHg 59%
    19:00 +4°C° 0 mm 7 mps 737 mmHg 62%
    20:00 +3°C° 0 mm 7 mps 738 mmHg 65%
    21:00 +3°C° 0 mm 6 mps 739 mmHg 66%
    22:00 +2°C° 0 mm 6 mps 739 mmHg 68%
    23:00 +2°C° 0 mm 5 mps 740 mmHg 69%

    Tomorrow, 28 February, Friday

    Time Temperature Precipitation Wind Pressure Humidity
    00:00 +3°C° 0 mm 4 mps 740 mmHg 70%
    01:00 +1°C° 0 mm 4 mps 740 mmHg 70%
    02:00 +2°C° 0 mm 3 mps 740 mmHg 70%
    03:00 +2°C° 0 mm 3 mps 740 mmHg 68%
    04:00 +2°C° 0 mm 3 mps 740 mmHg 67%
    05:00 +2°C° 0 mm 2 mps 740 mmHg 66%
    06:00 +3°C° 0 mm 2 mps 740 mmHg 63%
    07:00 +3°C° 0 mm 2 mps 740 mmHg 60%
    08:00 +4°C° 0 mm 2 mps 740 mmHg 57%
    09:00 +6°C° 0 mm 2 mps 740 mmHg 49%
    10:00 +8°C° 0 mm 2 mps 740 mmHg 41%
    11:00 +10°C° 0 mm 2 mps 739 mmHg 33%
    12:00 +12°C° 0 mm 2 mps 739 mmHg 34%
    13:00 +12°C° 0 mm 2 mps 738 mmHg 34%
    14:00 +12°C° 0 mm 2 mps 738 mmHg 35%
    15:00 +9°C° 0.5 mm 3 mps 738 mmHg 52%
    16:00 +6°C° 0.5 mm 4 mps 739 mmHg 70%
    17:00 +3°C° 0.5 mm 5 mps 739 mmHg 87%
    18:00 +3°C° 0.5 mm 5 mps 740 mmHg 84%
    19:00 +3°C° 0.5 mm 5 mps 740 mmHg 82%
    20:00 +3°C° 0.5 mm 5 mps 741 mmHg 79%
    21:00 +3°C° 0 mm 5 mps 741 mmHg 79%
    22:00 +2°C° 0 mm 6 mps 741 mmHg 79%
    23:00 +2°C° 0 mm 6 mps 742 mmHg 78%

    Day after tomorrow, 29 February, Saturday

    Time Temperature Precipitation Wind Pressure Humidity
    00:00 +2°C° 0 mm 6 mps 742 mmHg 78%
    01:00 +2°C° 0 mm 7 mps 742 mmHg 78%
    02:00 +1°C° 0 mm 8 mps 742 mmHg 78%
    03:00 0°C° 0 mm 7 mps 743 mmHg 76%
    04:00 0°C° 0 mm 7 mps 743 mmHg 75%
    05:00 -1°C° 0 mm 6 mps 744 mmHg 74%
    06:00 -1°C° 0 mm 6 mps 744 mmHg 73%
    07:00 0°C° 0 mm 5 mps 745 mmHg 73%
    08:00 0°C° 0 mm 5 mps 746 mmHg 73%
    09:00 +2°C° 0 mm 5 mps 746 mmHg 67%
    10:00 +3°C° 0 mm 5 mps 747 mmHg 62%
    11:00 +4°C° 0 mm 6 mps 747 mmHg 57%
    12:00 +6°C° 0 mm 5 mps 747 mmHg 54%
    13:00 +7°C° 0 mm 4 mps 747 mmHg 50%
    14:00 +8°C° 0 mm 4 mps 747 mmHg 47%
    15:00 +9°C° 0 mm 3 mps 747 mmHg 46%
    16:00 +9°C° 0 mm 2 mps 747 mmHg 46%
    17:00 +10°C° 0 mm 1 mps 747 mmHg 45%
    18:00 +9°C° 0 mm 1 mps 747 mmHg 49%
    19:00 +8°C° 0 mm 1 mps 747 mmHg 54%
    20:00 +6°C° 0 mm 1 mps 748 mmHg 58%
    21:00 +5°C° 0 mm 2 mps 748 mmHg 60%
    22:00 +5°C° 0 mm 2 mps 747 mmHg 62%
    23:00 +4°C° 0 mm 2 mps 747 mmHg 64%

    1 March, Sunday

    Time Temperature Precipitation Wind Pressure Humidity
    00:00 +4°C° 0 mm 2 mps 747 mmHg 64%
    01:00 +4°C° 0 mm 2 mps 747 mmHg 65%
    02:00 +4°C° 0 mm 2 mps 747 mmHg 65%
    03:00 +4°C° 0 mm 2 mps 747 mmHg 65%
    04:00 +4°C° 0 mm 2 mps 747 mmHg 66%
    05:00 +4°C° 0 mm 2 mps 746 mmHg 66%
    06:00 +4°C° 0 mm 2 mps 747 mmHg 66%
    07:00 +5°C° 0 mm 1 mps 747 mmHg 67%
    08:00 +5°C° 0 mm 1 mps 747 mmHg 67%
    09:00 +7°C° 0 mm 1 mps 747 mmHg 60%
    10:00 +9°C° 0 mm 1 mps 747 mmHg 52%
    11:00 +11°C° 0 mm 1 mps 747 mmHg 45%
    12:00 +12°C° 0 mm 1 mps 746 mmHg 42%
    13:00 +13°C° 0 mm 1 mps 746 mmHg 40%
    14:00 +14°C° 0 mm 1 mps 745 mmHg 37%
    15:00 +14°C° 0 mm 1 mps 745 mmHg 40%
    16:00 +14°C° 0 mm 1 mps 745 mmHg 43%
    17:00 +13°C° 0 mm 1 mps 744 mmHg 46%
    18:00 +12°C° 0 mm 1 mps 745 mmHg 50%
    19:00 +11°C° 0 mm 1 mps 745 mmHg 54%
    20:00 +9°C° 0 mm 2 mps 745 mmHg 57%
    21:00 +9°C° 0 mm 1 mps 745 mmHg 59%
    22:00 +9°C° 0 mm 1 mps 745 mmHg 61%
    23:00 +9°C° 0 mm 1 mps 745 mmHg 62%

    2 March, Monday

    Time Temperature Precipitation Wind Pressure Humidity
    00:00 +8°C° 0 mm 1 mps 745 mmHg 63%
    01:00 +8°C° 0 mm 1 mps 745 mmHg 64%
    02:00 +7°C° 0 mm 2 mps 744 mmHg 65%
    03:00 +7°C° 0 mm 2 mps 744 mmHg 65%
    04:00 +6°C° 0 mm 2 mps 744 mmHg 65%
    05:00 +6°C° 0 mm 2 mps 743 mmHg 66%
    06:00 +6°C° 0 mm 2 mps 743 mmHg 65%
    07:00 +7°C° 0 mm 2 mps 743 mmHg 65%
    08:00 +7°C° 0 mm 2 mps 743 mmHg 64%
    09:00 +9°C° 0 mm 2 mps 742 mmHg 57%
    10:00 +13°C° 0 mm 2 mps 742 mmHg 51%
    11:00 +15°C° 0 mm 2 mps 741 mmHg 44%
    12:00 +16°C° 0 mm 2 mps 741 mmHg 44%
    13:00 +17°C° 0 mm 3 mps 740 mmHg 44%
    14:00 +18°C° 0 mm 3 mps 740 mmHg 44%
    15:00 +18°C° 0 mm 3 mps 740 mmHg 48%
    16:00 +17°C° 0 mm 3 mps 739 mmHg 51%
    17:00 +17°C° 0 mm 2 mps 739 mmHg 54%
    18:00 +15°C° 0 mm 2 mps 740 mmHg 58%
    19:00 +14°C° 0 mm 2 mps 740 mmHg 62%
    20:00 +13°C° 0 mm 2 mps 740 mmHg 66%
    21:00 +12°C° 0 mm 2 mps 741 mmHg 67%
    22:00 +12°C° 0 mm 2 mps 741 mmHg 68%
    23:00 +10°C° 0 mm 2 mps 741 mmHg 68%

    3 March, Tuesday

    Time Temperature Precipitation Wind Pressure Humidity
    00:00 +10°C° 0 mm 2 mps 741 mmHg 69%
    01:00 +11°C° 0 mm 1 mps 741 mmHg 69%
    02:00 +10°C° 0 mm 1 mps 741 mmHg 69%
    03:00 +10°C° 0 mm 1 mps 741 mmHg 68%
    04:00 +11°C° 0 mm 1 mps 740 mmHg 68%
    05:00 +11°C° 0 mm 1 mps 740 mmHg 68%
    06:00 +11°C° 0 mm 1 mps 740 mmHg 68%
    07:00 +11°C° 0 mm 1 mps 740 mmHg 69%
    08:00 +11°C° 0 mm 1 mps 740 mmHg 70%
    09:00 +12°C° 0 mm 2 mps 739 mmHg 64%
    10:00 +14°C° 0 mm 2 mps 739 mmHg 59%
    11:00 +16°C° 0 mm 2 mps 739 mmHg 54%
    12:00 +17°C° 0 mm 2 mps 738 mmHg 51%
    13:00 +18°C° 0 mm 2 mps 738 mmHg 48%
    14:00 +19°C° 0 mm 3 mps 738 mmHg 46%
    15:00 +19°C° 0 mm 2 mps 737 mmHg 48%
    16:00 +18°C° 0 mm 2 mps 737 mmHg 51%
    17:00 +19°C° 0 mm 1 mps 737 mmHg 54%
    18:00 +18°C° 0 mm 1 mps 737 mmHg 57%
    19:00 +15°C° 0 mm 1 mps 737 mmHg 61%
    20:00 +14°C° 0 mm 1 mps 737 mmHg 65%
    21:00 +14°C° 0.2 mm 1 mps 737 mmHg 68%
    22:00 +13°C° 0.2 mm 1 mps 737 mmHg 72%
    23:00 +13°C° 0.2 mm 1 mps 737 mmHg 75%
    Show more